軌道要素
Epoch 2025 July 24.0 TT = JDT 2460880.5
T 2025 July 20.60384 TT Rudenko
q 1.6457025 (2000.0) P Q
n 0.14861557 Peri. 216.91053 -0.56247475 -0.82445831
a 3.5298792 Node 267.39775 +0.77272314 -0.49734050
e 0.5337794 Incl. 3.57985 +0.29414471 -0.27003875
P 6.63
From 1552 observations 1971 Sept. 19-2019 June 23, mean residual 0".8.
Nongravitational parameters A1 = -0.03, A2 = +0.0005.
|